HELLAS-SAT 4 & SGS-1

Last updated on Tue Sep 16 2025 00:02:49 GMT+0000 (Coordinated Universal Time)

1 44034U 19007A 25258.32128150 .00000137 00000+0 00000+0 0 9995 2 44034 0.0650 129.0179 0006057 39.3373 340.8422 1.00268964 24615
UTC large
Height (km)
Speed (km/s)
/
Latitude / Longitude
Inclination (degrees)
Orbital Period (minutes)
Azimuth
Elevation
Range (km)
Doppler Factor

Next 0 passes for location: London (51.5072 / 0.1276)

Sorry there are no passes over London.